• In Hungary
  • List of Countries
  • For 7 days
  • Water Temperature
  • Satellite Maps
  • Weather Map
  • News
  • Weather Widgets
  • user-avatar
    Login

    Hourly Weather Olgino

    Today, 25 September, Tuesday

    Time Temperature Precipitation Wind Pressure Humidity
    00:00 +14°C° 0 mm 3 mps 750 mmHg 67%
    01:00 +14°C° 0 mm 3 mps 750 mmHg 68%
    02:00 +13°C° 0 mm 3 mps 750 mmHg 69%
    03:00 +13°C° 0 mm 3 mps 750 mmHg 70%
    04:00 +13°C° 0 mm 3 mps 750 mmHg 71%
    05:00 +13°C° 0 mm 4 mps 750 mmHg 73%
    06:00 +12°C° 0 mm 4 mps 750 mmHg 75%
    07:00 +12°C° 0 mm 4 mps 750 mmHg 78%
    08:00 +13°C° 0 mm 5 mps 750 mmHg 76%
    09:00 +15°C° 0 mm 6 mps 750 mmHg 74%
    10:00 +16°C° 0 mm 6 mps 750 mmHg 72%
    11:00 +17°C° 0 mm 7 mps 750 mmHg 68%
    12:00 +18°C° 0 mm 7 mps 750 mmHg 64%
    13:00 +18°C° 0 mm 7 mps 750 mmHg 61%
    14:00 +18°C° 0 mm 7 mps 750 mmHg 59%
    15:00 +19°C° 0 mm 6 mps 750 mmHg 57%
    16:00 +19°C° 0 mm 6 mps 749 mmHg 55%
    17:00 +17°C° 0 mm 6 mps 749 mmHg 57%
    18:00 +16°C° 0 mm 5 mps 749 mmHg 59%
    19:00 +15°C° 0 mm 4 mps 749 mmHg 61%
    20:00 +14°C° 0.1 mm 5 mps 749 mmHg 61%
    21:00 +14°C° 0.1 mm 5 mps 749 mmHg 61%
    22:00 +14°C° 0.1 mm 5 mps 749 mmHg 61%
    23:00 +14°C° 0.2 mm 5 mps 749 mmHg 62%

    Tomorrow, 26 September, Wednesday

    Time Temperature Precipitation Wind Pressure Humidity
    00:00 +14°C° 0.2 mm 5 mps 749 mmHg 64%
    01:00 +14°C° 0.2 mm 5 mps 748 mmHg 65%
    02:00 +14°C° 0.1 mm 6 mps 749 mmHg 64%
    03:00 +14°C° 0.1 mm 6 mps 749 mmHg 63%
    04:00 +14°C° 0.1 mm 6 mps 749 mmHg 63%
    05:00 +14°C° 0 mm 6 mps 749 mmHg 63%
    06:00 +13°C° 0 mm 6 mps 749 mmHg 64%
    07:00 +13°C° 0 mm 5 mps 750 mmHg 64%
    08:00 +13°C° 0 mm 5 mps 750 mmHg 66%
    09:00 +13°C° 0 mm 5 mps 751 mmHg 67%
    10:00 +14°C° 0 mm 5 mps 751 mmHg 69%
    11:00 +13°C° 0.6 mm 4 mps 751 mmHg 71%
    12:00 +13°C° 0.6 mm 4 mps 752 mmHg 74%
    13:00 +12°C° 0.6 mm 4 mps 752 mmHg 77%
    14:00 +12°C° 0.3 mm 4 mps 752 mmHg 76%
    15:00 +12°C° 0.3 mm 4 mps 753 mmHg 76%
    16:00 +12°C° 0.3 mm 4 mps 753 mmHg 76%
    17:00 +11°C° 0.1 mm 4 mps 753 mmHg 78%
    18:00 +11°C° 0.1 mm 3 mps 753 mmHg 80%
    19:00 +10°C° 0.1 mm 3 mps 754 mmHg 82%
    20:00 +10°C° 0.1 mm 3 mps 754 mmHg 82%
    21:00 +10°C° 0.1 mm 3 mps 754 mmHg 83%
    22:00 +10°C° 0.1 mm 3 mps 754 mmHg 83%
    23:00 +9°C° 0.1 mm 3 mps 754 mmHg 84%

    Day after tomorrow, 27 September, Thursday

    Time Temperature Precipitation Wind Pressure Humidity
    00:00 +9°C° 0.1 mm 3 mps 753 mmHg 85%
    01:00 +9°C° 0.1 mm 3 mps 753 mmHg 87%
    02:00 +8°C° 0 mm 3 mps 753 mmHg 87%
    03:00 +8°C° 0 mm 3 mps 753 mmHg 88%
    04:00 +7°C° 0 mm 3 mps 753 mmHg 89%
    05:00 +6°C° 0 mm 4 mps 753 mmHg 90%
    06:00 +5°C° 0 mm 4 mps 753 mmHg 91%
    07:00 +5°C° 0 mm 4 mps 753 mmHg 92%
    08:00 +6°C° 0 mm 5 mps 752 mmHg 88%
    09:00 +6°C° 0 mm 5 mps 752 mmHg 84%
    10:00 +7°C° 0 mm 5 mps 752 mmHg 79%
    11:00 +7°C° 0 mm 6 mps 752 mmHg 77%
    12:00 +7°C° 0 mm 6 mps 751 mmHg 74%
    13:00 +8°C° 0 mm 7 mps 751 mmHg 72%
    14:00 +8°C° 0 mm 7 mps 750 mmHg 67%
    15:00 +9°C° 0 mm 7 mps 750 mmHg 62%
    16:00 +9°C° 0 mm 7 mps 750 mmHg 57%
    17:00 +8°C° 0 mm 6 mps 749 mmHg 60%
    18:00 +7°C° 0 mm 6 mps 749 mmHg 62%
    19:00 +7°C° 0 mm 5 mps 748 mmHg 64%
    20:00 +7°C° 0.1 mm 5 mps 748 mmHg 64%
    21:00 +7°C° 0.1 mm 6 mps 747 mmHg 65%
    22:00 +7°C° 0.1 mm 6 mps 747 mmHg 66%
    23:00 +5°C° 0.3 mm 6 mps 746 mmHg 69%

    28 September, Friday

    Time Temperature Precipitation Wind Pressure Humidity
    00:00 +5°C° 0.3 mm 6 mps 745 mmHg 72%
    01:00 +4°C° 0.3 mm 7 mps 745 mmHg 75%
    02:00 +4°C° 0.6 mm 6 mps 744 mmHg 78%
    03:00 +4°C° 0.6 mm 6 mps 744 mmHg 82%
    04:00 +4°C° 0.6 mm 6 mps 744 mmHg 85%
    05:00 +4°C° 0.1 mm 6 mps 744 mmHg 86%
    06:00 +4°C° 0.1 mm 6 mps 744 mmHg 87%
    07:00 +5°C° 0.1 mm 5 mps 744 mmHg 87%
    08:00 +5°C° 0 mm 6 mps 745 mmHg 84%
    09:00 +5°C° 0 mm 6 mps 745 mmHg 80%
    10:00 +7°C° 0 mm 6 mps 746 mmHg 77%
    11:00 +8°C° 0 mm 7 mps 746 mmHg 73%
    12:00 +8°C° 0 mm 7 mps 747 mmHg 69%
    13:00 +9°C° 0 mm 8 mps 747 mmHg 66%
    14:00 +9°C° 0 mm 7 mps 748 mmHg 66%
    15:00 +9°C° 0 mm 7 mps 748 mmHg 66%
    16:00 +9°C° 0 mm 6 mps 748 mmHg 66%
    17:00 +8°C° 0 mm 6 mps 748 mmHg 69%
    18:00 +7°C° 0 mm 5 mps 748 mmHg 71%
    19:00 +7°C° 0 mm 4 mps 749 mmHg 74%
    20:00 +7°C° 0 mm 4 mps 748 mmHg 73%
    21:00 +7°C° 0 mm 5 mps 748 mmHg 71%
    22:00 +7°C° 0 mm 5 mps 748 mmHg 70%
    23:00 +7°C° 0.3 mm 6 mps 747 mmHg 69%

    29 September, Saturday

    Time Temperature Precipitation Wind Pressure Humidity
    00:00 +8°C° 0.3 mm 7 mps 746 mmHg 68%
    01:00 +7°C° 0.3 mm 8 mps 745 mmHg 66%
    02:00 +7°C° 0.5 mm 9 mps 744 mmHg 68%
    03:00 +7°C° 0.5 mm 10 mps 744 mmHg 70%
    04:00 +8°C° 0.5 mm 10 mps 743 mmHg 72%
    05:00 +8°C° 0.3 mm 10 mps 743 mmHg 75%
    06:00 +8°C° 0.3 mm 10 mps 743 mmHg 78%
    07:00 +9°C° 0.3 mm 11 mps 743 mmHg 81%
    08:00 +8°C° 0.6 mm 10 mps 744 mmHg 79%
    09:00 +8°C° 0.6 mm 9 mps 745 mmHg 77%
    10:00 +9°C° 0.6 mm 8 mps 746 mmHg 74%
    11:00 +9°C° 0 mm 8 mps 747 mmHg 70%
    12:00 +9°C° 0 mm 8 mps 748 mmHg 66%
    13:00 +9°C° 0 mm 8 mps 749 mmHg 62%
    14:00 +9°C° 0 mm 7 mps 750 mmHg 60%
    15:00 +9°C° 0 mm 6 mps 750 mmHg 58%
    16:00 +8°C° 0 mm 6 mps 751 mmHg 56%
    17:00 +7°C° 0 mm 5 mps 752 mmHg 60%
    18:00 +7°C° 0 mm 3 mps 753 mmHg 64%
    19:00 +6°C° 0 mm 2 mps 753 mmHg 68%
    20:00 +5°C° 0 mm 2 mps 754 mmHg 70%
    21:00 +6°C° 0 mm 1 mps 754 mmHg 71%
    22:00 +6°C° 0 mm 1 mps 755 mmHg 73%
    23:00 +6°C° 0 mm 1 mps 755 mmHg 73%

    30 September, Sunday

    Time Temperature Precipitation Wind Pressure Humidity
    00:00 +6°C° 0 mm 1 mps 755 mmHg 73%
    01:00 +6°C° 0 mm 1 mps 756 mmHg 73%
    02:00 +5°C° 0 mm 1 mps 756 mmHg 73%
    03:00 +4°C° 0 mm 0 mps 756 mmHg 74%
    04:00 +4°C° 0 mm 0 mps 756 mmHg 74%
    05:00 +4°C° 0 mm 0 mps 756 mmHg 74%
    06:00 +4°C° 0 mm 0 mps 756 mmHg 75%
    07:00 +4°C° 0 mm 0 mps 757 mmHg 75%
    08:00 +5°C° 0 mm 0 mps 757 mmHg 72%
    09:00 +7°C° 0 mm 1 mps 757 mmHg 68%
    10:00 +7°C° 0 mm 1 mps 757 mmHg 65%
    11:00 +7°C° 0 mm 2 mps 757 mmHg 62%
    12:00 +8°C° 0 mm 2 mps 757 mmHg 59%
    13:00 +8°C° 0 mm 2 mps 757 mmHg 56%
    14:00 +8°C° 0 mm 2 mps 757 mmHg 56%
    15:00 +8°C° 0 mm 2 mps 757 mmHg 56%
    16:00 +8°C° 0 mm 2 mps 757 mmHg 56%
    17:00 +8°C° 0 mm 2 mps 757 mmHg 58%
    18:00 +7°C° 0 mm 2 mps 757 mmHg 60%
    19:00 +7°C° 0 mm 2 mps 758 mmHg 62%
    20:00 +6°C° 0 mm 2 mps 758 mmHg 63%
    21:00 +6°C° 0 mm 2 mps 758 mmHg 64%
    22:00 +6°C° 0 mm 2 mps 758 mmHg 65%
    23:00 +5°C° 0 mm 2 mps 759 mmHg 68%
    Show more